Weather History for Port Hope, MI

Change the Weather History Date:

Sunday, January 20, 2013

  Actual Average Record
Temperature  
Mean Temperature 24 °F -  
Max Temperature 33 °F 25 °F 44 °F (2006)
Min Temperature 15 °F 14 °F 0 °F (2004)
Degree Days  
Heating Degree Days 40    
Moisture  
Dew Point 9 °F    
Average Humidity 62    
Maximum Humidity 92    
Minimum Humidity 49    
Precipitation  
Precipitation 0.13 in - - ()
Sea Level Pressure  
Sea Level Pressure 29.93 in    
Wind  
Wind Speed 12 mph (West)    
Max Wind Speed 22 mph    
Max Gust Speed 38 mph    
Averages and records for this station are not official NWS values.
T = Trace of Precipitation, MM = Missing Value Source: NWS Daily Summary

Daily Weather History Graph

Daily Weather History Graph

Search for Another Location

Airport:

Trip Planner

Search our weather history database for the weather conditions in past years. The results will help you decide how hot, cold, wet, or windy it might be!

Date:

Astronomy

Jan. 20, 2013 Rise Set
Actual Time 7:59 AM EST 5:25 PM EST
Civil Twilight 7:27 AM EST 5:57 PM EST
Nautical Twilight 6:52 AM EST 6:32 PM EST
Astronomical Twilight 6:18 AM EST 7:06 PM EST
Moon 12:26 PM EST (1/20) 2:29 AM EST (1/20)
Length of Visible Light 10h 29m
Length of Day
9h 26m
Waxing Gibbous, 66% of the Moon is Illuminated
Jan 20
Waxing Gibbous
Jan 26
Full
Feb 3
Last Quarter
Feb 10
New
Feb 17
First Quarter

Hourly Weather History & Observations

Time (EST) Temp. Windchill Dew Point Humidity Pressure Visibility Wind Dir Wind Speed Gust Speed Precip Events Conditions
12:51 AM 32.0 °F 25.6 °F 30.0 °F 92% 29.43 in - WSW 6.9 mph 18.4 mph 0.09 in   Unknown
1:51 AM 33.1 °F 26.1 °F 28.9 °F 85% 29.46 in - West 8.1 mph - N/A   Unknown
2:51 AM 30.9 °F 19.8 °F 24.1 °F 76% 29.50 in - West 16.1 mph 31.1 mph 0.01 in   Unknown
3:51 AM 27.0 °F 14.3 °F 18.0 °F 69% 29.57 in - West 17.3 mph 38.0 mph 0.01 in   Unknown
4:51 AM 23.0 °F 7.6 °F 12.9 °F 65% 29.66 in - WNW 21.9 mph 35.7 mph N/A   Unknown
5:51 AM 19.9 °F 4.8 °F 9.0 °F 62% 29.74 in - WNW 18.4 mph 32.2 mph N/A   Unknown
6:51 AM 19.0 °F 6.8 °F 7.0 °F 59% 29.80 in - West 11.5 mph 29.9 mph N/A   Unknown
7:51 AM 19.0 °F 2.4 °F 8.1 °F 62% 29.83 in - WNW 21.9 mph 33.4 mph N/A   Unknown
8:51 AM 19.0 °F 6.1 °F 8.1 °F 62% 29.91 in - WNW 12.7 mph 28.8 mph N/A   Unknown
9:51 AM 19.0 °F 2.7 °F 7.0 °F 59% 29.99 in - NW 20.7 mph 35.7 mph N/A   Unknown
10:51 AM 19.0 °F 7.5 °F 8.1 °F 62% 30.04 in - WNW 10.4 mph 24.2 mph N/A   Unknown
11:51 AM 19.9 °F 5.2 °F 7.0 °F 57% 30.04 in - WNW 17.3 mph 31.1 mph N/A   Unknown
12:51 PM 19.9 °F 6.7 °F 5.0 °F 52% 30.05 in - WNW 13.8 mph 21.9 mph N/A   Unknown
1:51 PM 17.1 °F 5.0 °F 12.9 °F 84% 30.06 in - WNW 10.4 mph 19.6 mph N/A   Unknown
2:51 PM 19.0 °F 8.2 °F 5.0 °F 54% 30.08 in - West 9.2 mph 21.9 mph 0.02 in   Unknown
3:51 PM 18.0 °F 8.7 °F 6.1 °F 60% 30.11 in - West 6.9 mph 23.0 mph N/A   Unknown
4:51 PM 17.1 °F 5.8 °F 6.1 °F 62% 30.12 in - WNW 9.2 mph 19.6 mph N/A   Unknown
5:51 PM 17.1 °F 5.8 °F 3.0 °F 54% 30.13 in - West 9.2 mph - N/A   Unknown
6:51 PM 17.1 °F 6.6 °F 1.9 °F 52% 30.14 in - West 8.1 mph 20.7 mph N/A   Unknown
7:51 PM 17.1 °F 5.0 °F 1.0 °F 50% 30.15 in - West 10.4 mph 20.7 mph N/A   Unknown
8:51 PM 16.0 °F 7.4 °F 1.0 °F 52% 30.16 in - WNW 5.8 mph - N/A   Unknown
9:51 PM 16.0 °F 7.4 °F -0.0 °F 49% 30.15 in - West 5.8 mph - N/A   Unknown
10:51 PM 16.0 °F 10.4 °F 1.0 °F 52% 30.14 in - Variable 3.5 mph - N/A   Unknown
11:51 PM 15.1 °F 4.2 °F 1.0 °F 54% 30.13 in - WSW 8.1 mph - N/A   Unknown